Volver al catálogo

JILIN-01 GAOFEN 2D

ActivoCienciaSSO
NORAD 49256·PAYLOAD·🇨🇳 China

Lanzado Sep 27, 2021 desde Jiuquan Satellite Launch Center

Loading…

Próximos Pases (próximas 24 horas)

TLE

ActualizadoSource: Space-Track

Época: Sep 14, 2026, 13:57 UTC

1 49256U 21086A   26257.58145967  .00002814  00000-0  18329-3 0  9991
2 49256  97.6577  20.2703 0029920 218.4468 141.4629 15.08414743274218

Sigue JILIN-01 GAOFEN 2D en tiempo real con AllMySat

Download on the App Store